�������l�o���
Date,Time,MP-1(��Sv/h),MP-2(��Sv/h),MP-3(��Sv/h),MP-4(��Sv/h),MP-5(��Sv/h),MP-6(��Sv/h),MP-7(��Sv/h),MP-8(��Sv/h),����,����(m/s),���J
2018/04/06,00:00,0.884,1.481,0.921,1.731,1.185,0.490,0.863,0.826,-,CALM,��
2018/04/06,00:10,0.885,1.483,0.922,1.725,1.182,0.489,0.861,0.825,�쓌,1.2,��
2018/04/06,00:20,0.887,1.480,0.922,1.728,1.184,0.489,0.863,0.827,��쓌,2.3,��
2018/04/06,00:30,0.885,1.481,0.920,1.728,1.185,0.489,0.862,0.826,��쓌,3.1,��
2018/04/06,00:40,0.887,1.483,0.920,1.730,1.186,0.489,0.862,0.823,�쓌,3.1,��
2018/04/06,00:50,0.887,1.483,0.920,1.729,1.184,0.489,0.862,0.823,�쓌,2.8,��
2018/04/06,01:00,0.887,1.483,0.923,1.727,1.186,0.489,0.860,0.824,�쓌,4.0,��
2018/04/06,01:10,0.886,1.484,0.920,1.728,1.184,0.490,0.861,0.827,�쓌,2.3,�L
2018/04/06,01:20,0.885,1.481,0.919,1.727,1.183,0.491,0.862,0.826,�쓌,1.7,�L
2018/04/06,01:30,0.887,1.481,0.921,1.730,1.184,0.490,0.860,0.825,�쓌,3.0,�L
2018/04/06,01:40,0.886,1.480,0.922,1.727,1.182,0.490,0.861,0.826,�쓌,3.6,�L
2018/04/06,01:50,0.886,1.478,0.920,1.726,1.182,0.490,0.860,0.825,��쓌,1.5,�L
2018/04/06,02:00,0.884,1.477,0.920,1.729,1.181,0.489,0.861,0.824,��쓌,2.3,�L
2018/04/06,02:10,0.885,1.476,0.919,1.728,1.183,0.490,0.861,0.824,��,2.2,�L
2018/04/06,02:20,0.884,1.476,0.919,1.726,1.183,0.489,0.861,0.826,��,1.5,�L
2018/04/06,02:30,0.885,1.475,0.918,1.726,1.180,0.488,0.862,0.824,��쐼,1.4,�L
2018/04/06,02:40,0.884,1.472,0.920,1.724,1.183,0.489,0.860,0.825,��쓌,0.6,�L
2018/04/06,02:50,0.883,1.475,0.919,1.725,1.179,0.490,0.861,0.823,�k,1.4,�L
2018/04/06,03:00,0.884,1.474,0.919,1.725,1.179,0.489,0.862,0.825,�k,1.7,�L
2018/04/06,03:10,0.881,1.477,0.919,1.726,1.179,0.489,0.860,0.825,�k,1.9,�L
2018/04/06,03:20,0.883,1.476,0.919,1.726,1.180,0.489,0.862,0.825,�k,3.1,�L
2018/04/06,03:30,0.885,1.476,0.918,1.724,1.180,0.489,0.862,0.826,�k,3.9,�L
2018/04/06,03:40,0.884,1.476,0.920,1.724,1.181,0.488,0.862,0.824,�k,3.9,�L
2018/04/06,03:50,0.884,1.475,0.918,1.725,1.181,0.491,0.861,0.821,�k,4.5,�L
2018/04/06,04:00,0.881,1.476,0.918,1.723,1.179,0.487,0.861,0.823,�k,4.1,�L
2018/04/06,04:10,0.882,1.476,0.919,1.721,1.180,0.488,0.861,0.824,�k�k��,5.0,��
2018/04/06,04:20,0.881,1.477,0.917,1.726,1.180,0.489,0.861,0.823,�k,4.1,��
2018/04/06,04:30,0.882,1.475,0.917,1.726,1.180,0.489,0.860,0.826,�k,3.8,��
2018/04/06,04:40,0.882,1.475,0.919,1.723,1.180,0.489,0.858,0.822,�k�k��,4.4,��
2018/04/06,04:50,0.883,1.475,0.919,1.725,1.180,0.488,0.862,0.824,�k�k��,3.8,��
2018/04/06,05:00,0.882,1.474,0.918,1.723,1.179,0.488,0.860,0.824,�k,4.0,��
2018/04/06,05:10,0.882,1.475,0.916,1.725,1.180,0.488,0.860,0.826,�k,4.3,��
2018/04/06,05:20,0.883,1.476,0.919,1.724,1.182,0.488,0.859,0.825,�k,4.8,��
2018/04/06,05:30,0.883,1.476,0.917,1.722,1.182,0.488,0.860,0.825,�k�k��,4.6,��
2018/04/06,05:40,0.883,1.475,0.918,1.724,1.179,0.487,0.860,0.825,�k�k��,4.2,��
2018/04/06,05:50,0.883,1.475,0.919,1.725,1.177,0.487,0.859,0.824,�k�k��,3.4,��
2018/04/06,06:00,0.882,1.475,0.918,1.723,1.180,0.487,0.859,0.826,�k�k��,3.2,��
2018/04/06,06:10,0.882,1.474,0.916,1.723,1.181,0.487,0.860,0.825,�k,2.6,��
2018/04/06,06:20,0.880,1.475,0.917,1.725,1.181,0.489,0.863,0.826,�k�k��,2.6,��
2018/04/06,06:30,0.884,1.475,0.919,1.724,1.179,0.486,0.859,0.825,�k,2.3,��
2018/04/06,06:40,0.883,1.476,0.920,1.723,1.181,0.488,0.861,0.826,�k�k��,1.4,��
2018/04/06,06:50,0.885,1.474,0.918,1.725,1.182,0.488,0.860,0.824,�k,1.4,��
2018/04/06,07:00,0.881,1.477,0.918,1.723,1.181,0.486,0.860,0.825,�k,2.3,��
2018/04/06,07:10,0.883,1.477,0.918,1.723,1.183,0.487,0.862,0.825,�k�k��,3.8,��
2018/04/06,07:20,0.884,1.477,0.919,1.720,1.184,0.488,0.861,0.825,�k�k��,2.6,��
2018/04/06,07:30,0.882,1.477,0.918,1.723,1.182,0.485,0.862,0.825,�k,2.5,��
2018/04/06,07:40,0.884,1.478,0.919,1.726,1.179,0.486,0.861,0.826,�k,2.3,��
2018/04/06,07:50,0.883,1.472,0.920,1.723,1.182,0.487,0.862,0.825,�k�k��,2.5,��
2018/04/06,08:00,0.882,1.475,0.919,1.725,1.184,0.487,0.861,0.826,�k,2.0,��
2018/04/06,08:10,0.883,1.477,0.918,1.723,1.182,0.487,0.859,0.825,�k,3.4,��
2018/04/06,08:20,0.883,1.481,0.922,1.725,1.182,0.486,0.860,0.827,�k,4.9,��
2018/04/06,08:30,0.884,1.473,0.919,1.725,1.184,0.485,0.861,0.825,�k,4.2,��
2018/04/06,08:40,0.882,1.476,0.918,1.726,1.181,0.486,0.859,0.825,�k�k��,3.6,��
2018/04/06,08:50,0.884,1.478,0.918,1.722,1.182,0.487,0.860,0.824,�k,3.5,��
2018/04/06,09:00,0.883,1.475,0.919,1.722,1.182,0.486,0.860,0.823,�k,3.0,��
2018/04/06,09:10,0.883,1.475,0.919,1.725,1.179,0.488,0.858,0.824,�k,2.6,��
2018/04/06,09:20,0.884,1.477,0.919,1.725,1.176,0.487,0.861,0.823,�k,2.9,��
2018/04/06,09:30,0.882,1.474,0.920,1.726,1.181,0.486,0.860,0.823,�k�k��,3.8,��
2018/04/06,09:40,0.884,1.477,0.918,1.725,1.181,0.486,0.859,0.824,�k,4.1,��
2018/04/06,09:50,0.882,1.475,0.920,1.723,1.178,0.487,0.860,0.825,�k�k��,2.6,��
2018/04/06,10:00,0.882,1.475,0.918,1.725,1.181,0.488,0.861,0.824,�k�k��,3.0,��
2018/04/06,10:10,0.883,1.476,0.918,1.727,1.178,0.487,0.860,0.826,�k�k��,2.9,��
2018/04/06,10:20,0.885,1.479,0.920,1.722,1.181,0.487,0.861,0.827,�k�k��,3.2,��
2018/04/06,10:30,0.883,1.480,0.921,1.725,1.182,0.487,0.858,0.826,�k�k��,3.5,��
2018/04/06,10:40,0.885,1.479,0.920,1.723,1.179,0.487,0.860,0.827,�k�k��,3.4,��
2018/04/06,10:50,0.883,1.476,0.919,1.724,1.179,0.488,0.860,0.827,�k�k��,3.7,��
2018/04/06,11:00,0.886,1.476,0.919,1.723,1.181,0.486,0.860,0.827,�k,3.1,��
2018/04/06,11:10,0.885,1.478,0.918,1.725,1.180,0.487,0.861,0.827,�k,3.7,��
2018/04/06,11:20,0.886,1.480,0.919,1.723,1.180,0.488,0.860,0.828,�k��,2.6,��
2018/04/06,11:30,0.885,1.477,0.919,1.725,1.182,0.487,0.861,0.827,�k,3.8,��
2018/04/06,11:40,0.884,1.479,0.921,1.727,1.182,0.488,0.860,0.825,�k�k��,2.0,��
2018/04/06,11:50,0.885,1.481,0.920,1.724,1.180,0.488,0.861,0.825,�k,2.3,��
2018/04/06,12:00,0.887,1.479,0.921,1.729,1.181,0.488,0.860,0.825,�k,2.3,��
2018/04/06,12:10,0.887,1.479,0.921,1.727,1.180,0.487,0.861,0.826,�k�k��,2.0,��
2018/04/06,12:20,0.886,1.479,0.924,1.726,1.183,0.489,0.862,0.824,�k��,2.2,��
2018/04/06,12:30,0.889,1.479,0.923,1.728,1.181,0.491,0.861,0.825,�k��,1.7,��
2018/04/06,12:40,0.885,1.476,0.923,1.726,1.187,0.488,0.861,0.824,�k��,2.2,��
2018/04/06,12:50,0.887,1.479,0.921,1.725,1.184,0.488,0.862,0.824,-,CALM,��
2018/04/06,13:00,0.885,1.475,0.920,1.727,1.181,0.488,0.862,0.825,�k�k��,0.9,��
2018/04/06,13:10,0.885,1.474,0.918,1.727,1.180,0.490,0.862,0.824,�k�k��,1.7,��
2018/04/06,13:20,0.886,1.475,0.918,1.727,1.182,0.488,0.863,0.824,�k�k��,1.7,��
2018/04/06,13:30,0.886,1.474,0.918,1.728,1.184,0.490,0.862,0.825,�k�k��,1.2,��
2018/04/06,13:40,0.888,1.474,0.921,1.726,1.185,0.489,0.861,0.825,�k�k��,1.2,��
2018/04/06,13:50,0.888,1.476,0.918,1.729,1.187,0.491,0.863,0.825,���k��,0.6,��
2018/04/06,14:00,0.888,1.477,0.919,1.726,1.183,0.489,0.864,0.826,�k�k��,0.6,��
2018/04/06,14:10,0.886,1.475,0.917,1.728,1.183,0.488,0.864,0.824,-,CALM,��
2018/04/06,14:20,0.884,1.475,0.919,1.727,1.180,0.488,0.862,0.824,�k�k��,3.3,�L
2018/04/06,14:30,0.887,1.473,0.918,1.725,1.183,0.487,0.863,0.823,�k,3.9,��
2018/04/06,14:40,0.885,1.475,0.919,1.724,1.183,0.488,0.863,0.824,�k,4.6,��
2018/04/06,14:50,0.886,1.477,0.921,1.729,1.181,0.489,0.863,0.822,�k,3.9,��
2018/04/06,15:00,0.887,1.476,0.924,1.725,1.183,0.489,0.863,0.822,�k,3.5,��
2018/04/06,15:10,0.887,1.477,0.923,1.729,1.185,0.489,0.862,0.826,�k,3.7,��
2018/04/06,15:20,0.887,1.477,0.923,1.728,1.185,0.489,0.863,0.827,�k,3.9,��
2018/04/06,15:30,0.886,1.477,0.923,1.726,1.186,0.489,0.862,0.827,�k,4.1,��
2018/04/06,15:40,0.888,1.482,0.921,1.726,1.183,0.490,0.864,0.827,�k,3.8,��
2018/04/06,15:50,0.888,1.481,0.920,1.725,1.184,0.490,0.863,0.829,�k,4.5,��
2018/04/06,16:00,0.886,1.480,0.923,1.726,1.182,0.490,0.865,0.826,�k,4.8,��
2018/04/06,16:10,0.887,1.480,0.921,1.727,1.184,0.491,0.864,0.828,�k,4.9,��
2018/04/06,16:20,0.887,1.482,0.922,1.728,1.184,0.489,0.862,0.827,�k�k��,6.0,��
2018/04/06,16:30,0.888,1.481,0.923,1.728,1.184,0.492,0.863,0.829,�k�k��,6.3,��
2018/04/06,16:40,0.888,1.481,0.921,1.727,1.184,0.490,0.863,0.829,�k�k��,5.8,��
2018/04/06,16:50,0.888,1.480,0.921,1.730,1.185,0.489,0.863,0.828,�k�k��,7.1,��
2018/04/06,17:00,0.888,1.482,0.919,1.725,1.186,0.488,0.863,0.828,�k�k��,5.9,��
2018/04/06,17:10,0.886,1.483,0.923,1.723,1.189,0.489,0.863,0.828,�k�k��,6.5,��
2018/04/06,17:20,0.886,1.482,0.920,1.724,1.186,0.488,0.862,0.827,�k�k��,4.9,��
2018/04/06,17:30,0.887,1.481,0.921,1.727,1.185,0.489,0.864,0.827,�k�k��,6.7,��
2018/04/06,17:40,0.887,1.482,0.924,1.726,1.186,0.490,0.862,0.827,�k�k��,7.1,��
2018/04/06,17:50,0.886,1.481,0.923,1.725,1.188,0.489,0.864,0.828,�k�k��,6.1,��
2018/04/06,18:00,0.884,1.480,0.921,1.727,1.184,0.488,0.862,0.826,�k�k��,5.8,��
2018/04/06,18:10,0.886,1.481,0.922,1.724,1.184,0.487,0.861,0.828,�k�k��,6.5,�L
2018/04/06,18:20,0.886,1.479,0.921,1.727,1.185,0.489,0.862,0.827,�k�k��,6.8,�L
2018/04/06,18:30,0.888,1.482,0.923,1.724,1.187,0.490,0.863,0.828,�k�k��,6.3,�L
2018/04/06,18:40,0.887,1.479,0.924,1.726,1.186,0.490,0.862,0.827,�k�k��,6.0,�L
2018/04/06,18:50,0.885,1.481,0.923,1.727,1.186,0.488,0.862,0.828,�k�k��,5.7,��
2018/04/06,19:00,0.887,1.479,0.922,1.726,1.185,0.489,0.862,0.827,�k�k��,5.4,��
2018/04/06,19:10,0.885,1.478,0.924,1.725,1.184,0.490,0.861,0.827,�k�k��,5.3,��
2018/04/06,19:20,0.886,1.477,0.923,1.724,1.186,0.489,0.861,0.827,�k�k��,7.1,��
2018/04/06,19:30,0.886,1.481,0.920,1.727,1.183,0.488,0.860,0.826,�k�k��,6.4,��
2018/04/06,19:40,0.884,1.482,0.921,1.725,1.185,0.489,0.863,0.825,�k�k��,7.2,�L
2018/04/06,19:50,0.885,1.481,0.920,1.722,1.185,0.489,0.861,0.827,�k�k��,6.5,�L
2018/04/06,20:00,0.886,1.477,0.922,1.722,1.185,0.488,0.861,0.823,�k�k��,7.4,�L
2018/04/06,20:10,0.886,1.479,0.921,1.725,1.183,0.487,0.861,0.825,�k��,6.6,�L
2018/04/06,20:20,0.884,1.478,0.921,1.722,1.182,0.488,0.860,0.826,�k��,5.5,�L
2018/04/06,20:30,0.882,1.474,0.919,1.720,1.177,0.488,0.861,0.826,�k�k��,6.9,�L
2018/04/06,20:40,0.881,1.472,0.917,1.715,1.176,0.487,0.859,0.825,�k��,6.3,�L
2018/04/06,20:50,0.879,1.465,0.919,1.709,1.173,0.489,0.859,0.823,�k��,6.4,�L
2018/04/06,21:00,0.878,1.466,0.913,1.712,1.172,0.489,0.858,0.826,�k�k��,7.3,�L
2018/04/06,21:10,0.877,1.463,0.917,1.710,1.171,0.487,0.857,0.824,�k��,6.1,�L
2018/04/06,21:20,0.877,1.463,0.917,1.709,1.170,0.486,0.857,0.825,�k��,7.3,�L
2018/04/06,21:30,0.877,1.464,0.915,1.709,1.168,0.487,0.859,0.824,�k��,7.5,�L
2018/04/06,21:40,0.877,1.464,0.915,1.711,1.171,0.486,0.858,0.825,�k�k��,8.3,�L
2018/04/06,21:50,0.877,1.465,0.914,1.708,1.169,0.487,0.856,0.826,�k�k��,5.7,�L
2018/04/06,22:00,0.877,1.462,0.916,1.709,1.168,0.487,0.858,0.824,�k�k��,7.1,�L
2018/04/06,22:10,0.876,1.465,0.915,1.709,1.169,0.486,0.862,0.824,�k��,8.4,�L
2018/04/06,22:20,0.878,1.464,0.913,1.709,1.169,0.488,0.857,0.825,�k�k��,8.4,�L
2018/04/06,22:30,0.876,1.462,0.913,1.709,1.168,0.486,0.858,0.825,�k�k��,8.0,�L
2018/04/06,22:40,0.876,1.462,0.913,1.708,1.171,0.487,0.858,0.825,�k�k��,6.7,�L
2018/04/06,22:50,0.878,1.460,0.913,1.708,1.169,0.487,0.859,0.825,�k�k��,6.5,�L
2018/04/06,23:00,0.878,1.463,0.912,1.715,1.169,0.487,0.858,0.825,�k�k��,6.5,�L
2018/04/06,23:10,0.874,1.458,0.912,1.703,1.164,0.486,0.857,0.824,�k��,8.5,�L
2018/04/06,23:20,0.863,1.440,0.902,1.689,1.151,0.484,0.854,0.821,�k�k��,7.7,�L
2018/04/06,23:30,0.862,1.430,0.900,1.677,1.143,0.484,0.851,0.819,�k,6.3,�L
2018/04/06,23:40,0.862,1.430,0.900,1.675,1.144,0.481,0.850,0.818,�k,5.7,�L
2018/04/06,23:50,0.859,1.433,0.899,1.679,1.145,0.483,0.852,0.820,�k,5.4,��
